Weather History for KLXL - November, 2013

Change the Weather History Date:

Tuesday, November 26, 2013

  Actual Average Record
Temperature  
Mean Temperature 18 °F -  
Max Temperature 26 °F 32 °F 56 °F (1960)
Min Temperature 10 °F 16 °F -13 °F (1975)
Degree Days  
Heating Degree Days 47    
Moisture  
Dew Point 5 °F    
Average Humidity 61    
Maximum Humidity 79    
Minimum Humidity 46    
Precipitation  
Precipitation 0.00 in - - ()
Sea Level Pressure  
Sea Level Pressure 30.25 in    
Wind  
Wind Speed 11 mph (NW)    
Max Wind Speed 22 mph    
Max Gust Speed 31 mph    
Visibility 10 miles    
Events Snow    
Averages and records for this station are not official NWS values.
T = Trace of Precipitation, MM = Missing Value Source: NWS Daily Summary

Daily Weather History Graph

Daily Weather History Graph

Search for Another Location

Airport or City:

Trip Planner

Search our weather history database for the weather conditions in past years. The results will help you decide how hot, cold, wet, or windy it might be!

Date:

Astronomy

Nov. 26, 2013 Rise Set
Actual Time 7:32 AM CST 4:36 PM CST
Civil Twilight 6:59 AM CST 5:09 PM CST
Nautical Twilight 6:22 AM CST 5:46 PM CST
Astronomical Twilight 5:46 AM CST 6:22 PM CST
Moon 12:16 AM CST (11/26) 1:02 PM CST (11/26)
Length of Visible Light 10h 10m
Length of Day
9h 03m
Last Quarter, 41% of the Moon is Illuminated
Nov 26
Last Quarter
Dec 2
New
Dec 9
First Quarter
Dec 17
Full
Dec 25
Last Quarter

Hourly Weather History & Observations

Time (CST) Temp. Windchill Dew Point Humidity Pressure Visibility Wind Dir Wind Speed Gust Speed Precip Events Conditions
12:15 AM 26.6 °F 19.1 °F 17.6 °F 69% 30.07 in 10.0 mi WNW 6.9 mph - N/A Snow Light Snow
12:35 AM 26.6 °F 14.7 °F 15.8 °F 64% 30.08 in 10.0 mi WNW 15.0 mph 25.3 mph N/A   Mostly Cloudy
12:54 AM 26.6 °F 13.4 °F 14.0 °F 59% 30.08 in 10.0 mi WNW 18.4 mph 27.6 mph N/A   Mostly Cloudy
1:15 AM 24.8 °F 10.3 °F 15.8 °F 69% 30.09 in 10.0 mi West 20.7 mph 24.2 mph N/A Snow Light Snow
1:35 AM 23.0 °F 10.6 °F 14.0 °F 68% 30.09 in 10.0 mi WNW 13.8 mph 20.7 mph N/A   Overcast
1:55 AM 23.0 °F 11.1 °F 14.0 °F 68% 30.10 in 10.0 mi WNW 12.7 mph 23.0 mph N/A   Overcast
2:15 AM 23.0 °F 13.1 °F 14.0 °F 68% 30.10 in 10.0 mi WNW 9.2 mph 20.7 mph N/A   Overcast
2:35 AM 23.0 °F 10.1 °F 12.2 °F 63% 30.11 in 10.0 mi WNW 15.0 mph 21.9 mph N/A   Mostly Cloudy
2:54 AM 21.2 °F 8.3 °F 12.2 °F 68% 30.11 in 10.0 mi WNW 13.8 mph 23.0 mph N/A   Scattered Clouds
3:15 AM 21.2 °F 8.3 °F 10.4 °F 63% 30.12 in 10.0 mi WNW 13.8 mph 24.2 mph N/A   Scattered Clouds
3:35 AM 21.2 °F 5.2 °F 8.6 °F 58% 30.13 in 10.0 mi WNW 21.9 mph 31.1 mph N/A   Scattered Clouds
3:54 AM 19.4 °F 7.2 °F 3.2 °F 49% 30.13 in 10.0 mi WNW 11.5 mph 26.5 mph N/A   Scattered Clouds
4:15 AM 19.4 °F 5.5 °F 1.4 °F 46% 30.14 in 10.0 mi WNW 15.0 mph 27.6 mph N/A   Clear
4:35 AM 17.6 °F 2.7 °F 3.2 °F 53% 30.15 in 10.0 mi NW 16.1 mph 28.8 mph N/A   Clear
4:55 AM 17.6 °F 1.7 °F 3.2 °F 53% 30.15 in 10.0 mi WNW 18.4 mph 24.2 mph N/A   Clear
5:15 AM 15.8 °F 3.4 °F 3.2 °F 58% 30.16 in 10.0 mi NW 10.4 mph 19.6 mph N/A   Clear
5:34 AM 15.8 °F 3.4 °F 3.2 °F 58% 30.17 in 10.0 mi WNW 10.4 mph 19.6 mph N/A   Clear
5:55 AM 14.0 °F -0.2 °F 3.2 °F 62% 30.18 in 10.0 mi WNW 12.7 mph 18.4 mph N/A   Clear
6:14 AM 14.0 °F -0.2 °F 3.2 °F 62% 30.18 in 10.0 mi WNW 12.7 mph 18.4 mph N/A   Clear
6:35 AM 14.0 °F -0.2 °F 3.2 °F 62% 30.18 in 10.0 mi WNW 12.7 mph 18.4 mph N/A   Clear
6:55 AM 14.0 °F 0.5 °F 5.0 °F 67% 30.18 in 10.0 mi WNW 11.5 mph 17.3 mph N/A   Clear
7:15 AM 14.0 °F 0.5 °F 5.0 °F 67% 30.18 in 10.0 mi NW 11.5 mph 18.4 mph N/A   Clear
7:35 AM 14.0 °F 2.0 °F 5.0 °F 67% 30.19 in 10.0 mi WNW 9.2 mph 16.1 mph N/A   Clear
7:55 AM 14.0 °F 1.2 °F 5.0 °F 67% 30.20 in 10.0 mi WNW 10.4 mph 19.6 mph N/A   Scattered Clouds
8:14 AM 14.0 °F 0.5 °F 5.0 °F 67% 30.21 in 10.0 mi WNW 11.5 mph 20.7 mph N/A   Scattered Clouds
8:35 AM 14.0 °F 2.9 °F 5.0 °F 67% 30.21 in 10.0 mi NW 8.1 mph 17.3 mph N/A   Scattered Clouds
8:55 AM 15.8 °F 2.7 °F 5.0 °F 62% 30.23 in 10.0 mi WNW 11.5 mph 19.6 mph N/A   Scattered Clouds
9:14 AM 15.8 °F 2.1 °F 5.0 °F 62% 30.24 in 10.0 mi NW 12.7 mph 24.2 mph N/A   Scattered Clouds
9:35 AM 17.6 °F 6.4 °F 5.0 °F 58% 30.24 in 10.0 mi WNW 9.2 mph 17.3 mph N/A   Scattered Clouds
9:55 AM 17.6 °F 5.0 °F 3.2 °F 53% 30.25 in 10.0 mi WNW 11.5 mph 19.6 mph N/A   Mostly Cloudy
10:14 AM 17.6 °F 3.7 °F 3.2 °F 53% 30.26 in 10.0 mi WNW 13.8 mph 20.7 mph N/A   Mostly Cloudy
10:35 AM 17.6 °F 5.0 °F 3.2 °F 53% 30.26 in 10.0 mi NW 11.5 mph 20.7 mph N/A   Overcast
10:55 AM 17.6 °F 5.7 °F 3.2 °F 53% 30.26 in 10.0 mi NNW 10.4 mph 19.6 mph N/A   Mostly Cloudy
11:14 AM 17.6 °F 4.3 °F 3.2 °F 53% 30.27 in 10.0 mi NW 12.7 mph 23.0 mph N/A   Mostly Cloudy
11:35 AM 17.6 °F 5.7 °F 3.2 °F 53% 30.27 in 10.0 mi NNW 10.4 mph 21.9 mph N/A   Mostly Cloudy
11:55 AM 19.4 °F 7.9 °F 3.2 °F 49% 30.27 in 10.0 mi NNW 10.4 mph 20.7 mph N/A   Mostly Cloudy
12:14 PM 17.6 °F 4.3 °F 3.2 °F 53% 30.27 in 10.0 mi NW 12.7 mph 20.7 mph N/A   Mostly Cloudy
12:35 PM 19.4 °F 8.6 °F 3.2 °F 49% 30.26 in 10.0 mi NNW 9.2 mph 17.3 mph N/A   Mostly Cloudy
12:55 PM 19.4 °F 9.5 °F 3.2 °F 49% 30.26 in 10.0 mi NW 8.1 mph 18.4 mph N/A   Mostly Cloudy
1:14 PM 19.4 °F 8.6 °F 3.2 °F 49% 30.26 in 10.0 mi NW 9.2 mph 18.4 mph N/A   Mostly Cloudy
1:35 PM 19.4 °F 8.6 °F 3.2 °F 49% 30.26 in 10.0 mi NW 9.2 mph 23.0 mph N/A   Mostly Cloudy
1:55 PM 19.4 °F 8.6 °F 3.2 °F 49% 30.26 in 10.0 mi NNW 9.2 mph 17.3 mph N/A   Mostly Cloudy
2:14 PM 19.4 °F 7.2 °F 3.2 °F 49% 30.26 in 10.0 mi NW 11.5 mph 25.3 mph N/A   Mostly Cloudy
2:35 PM 21.2 °F 8.3 °F 3.2 °F 46% 30.27 in 10.0 mi NNW 13.8 mph 19.6 mph N/A   Mostly Cloudy
2:55 PM 19.4 °F 7.2 °F 3.2 °F 49% 30.28 in 10.0 mi NNW 11.5 mph 21.9 mph N/A   Mostly Cloudy
3:14 PM 19.4 °F 7.2 °F 3.2 °F 49% 30.29 in 10.0 mi NW 11.5 mph 18.4 mph N/A   Mostly Cloudy
3:35 PM 19.4 °F 8.6 °F 3.2 °F 49% 30.29 in 10.0 mi NW 9.2 mph 18.4 mph N/A   Overcast
3:55 PM 19.4 °F 8.6 °F 3.2 °F 49% 30.30 in 10.0 mi NW 9.2 mph 18.4 mph N/A   Mostly Cloudy
4:14 PM 17.6 °F 5.7 °F 3.2 °F 53% 30.30 in 10.0 mi NW 10.4 mph 17.3 mph N/A   Overcast
4:35 PM 17.6 °F 6.4 °F 3.2 °F 53% 30.31 in 10.0 mi NNW 9.2 mph 18.4 mph N/A   Mostly Cloudy
4:55 PM 17.6 °F 5.7 °F 3.2 °F 53% 30.32 in 10.0 mi NW 10.4 mph 16.1 mph N/A   Scattered Clouds
5:14 PM 17.6 °F 8.2 °F 3.2 °F 53% 30.33 in 10.0 mi NW 6.9 mph - N/A   Clear
5:35 PM 15.8 °F 10.2 °F 3.2 °F 58% 30.33 in 10.0 mi NW 3.5 mph - N/A   Scattered Clouds
5:55 PM 15.8 °F 7.2 °F 3.2 °F 58% 30.34 in 10.0 mi NW 5.8 mph - N/A   Scattered Clouds
6:14 PM 15.8 °F 5.1 °F 3.2 °F 58% 30.34 in 10.0 mi NW 8.1 mph - N/A   Clear
6:35 PM 15.8 °F 7.2 °F 3.2 °F 58% 30.35 in 10.0 mi NW 5.8 mph - N/A   Clear
6:55 PM 14.0 °F 2.9 °F 5.0 °F 67% 30.35 in 10.0 mi NW 8.1 mph - N/A   Clear
7:14 PM 14.0 °F 6.5 °F 5.0 °F 67% 30.35 in 10.0 mi NNW 4.6 mph - N/A   Clear
7:35 PM 14.0 °F 5.1 °F 5.0 °F 67% 30.35 in 10.0 mi NW 5.8 mph - N/A   Clear
7:55 PM 14.0 °F 5.1 °F 5.0 °F 67% 30.36 in 10.0 mi NW 5.8 mph - N/A   Clear
8:14 PM 14.0 °F 5.1 °F 5.0 °F 67% 30.36 in 10.0 mi NW 5.8 mph - N/A   Clear
8:35 PM 12.2 °F 4.3 °F 5.0 °F 73% 30.36 in 10.0 mi NW 4.6 mph - N/A   Clear
8:54 PM 12.2 °F 2.9 °F 5.0 °F 73% 30.36 in 10.0 mi NW 5.8 mph - N/A   Clear
9:15 PM 12.2 °F 4.3 °F 5.0 °F 73% 30.36 in 10.0 mi NW 4.6 mph - N/A   Clear
9:35 PM 12.2 °F 2.9 °F 5.0 °F 73% 30.36 in 10.0 mi NNW 5.8 mph - N/A   Clear
9:54 PM 12.2 °F 4.3 °F 5.0 °F 73% 30.36 in 10.0 mi NW 4.6 mph - N/A   Clear
10:15 PM 12.2 °F 1.7 °F 5.0 °F 73% 30.37 in 10.0 mi NNW 6.9 mph - N/A   Clear
10:35 PM 12.2 °F 6.1 °F 5.0 °F 73% - 10.0 mi NW 3.5 mph - N/A   Clear
10:54 PM 12.2 °F 6.1 °F 5.0 °F 73% 30.36 in 10.0 mi NW 3.5 mph - N/A   Clear
11:15 PM 10.4 °F - 5.0 °F 79% 30.36 in 10.0 mi Calm Calm - N/A   Clear
11:35 PM 10.4 °F - 5.0 °F 79% 30.38 in 10.0 mi Calm Calm - N/A   Clear
11:54 PM 10.4 °F - 5.0 °F 79% 30.37 in 10.0 mi Calm Calm - N/A   Clear